Location: Haliburton Scout Reserve
(45.0900°N, 78.3200°W)
Time: 22:18:09
(UTC-04:00)

IDEFIX/ARIANE 42P - Visible Passes

Search period start: 22 September 2014 00:00
Search period end: 02 October 2014 00:00
Orbit: 787 x 803 km, 98.3° (Epoch: 22 September)

Date Brightness Start Highest point End Pass type
(mag) Time Alt. Az. Time Alt. Az. Time Alt. Az.
22 Sep 3.0 21:02:46 10° S 21:07:55 61° W 21:13:07 10° NNW visible
23 Sep 2.5 20:34:34 10° SSE 20:39:46 78° ENE 20:45:02 10° N visible
23 Sep 5.2 22:17:13 10° WSW 22:20:00 14° W 22:22:47 10° NW visible
24 Sep 2.9 20:06:49 10° SE 20:11:45 45° ENE 20:16:43 10° N visible
24 Sep 4.5 21:47:16 10° SSW 21:51:33 25° W 21:55:52 10° NW visible
25 Sep 3.6 19:39:32 10° ESE 19:43:50 27° ENE 19:48:10 10° N visible
25 Sep 3.6 21:18:15 10° S 21:23:13 44° W 21:28:14 10° NNW visible
26 Sep 2.6 20:49:55 11° S 20:55:01 78° WSW 21:00:17 10° NNW visible
27 Sep 2.6 20:21:48 10° SSE 20:26:55 61° ENE 20:32:06 10° N visible
27 Sep 4.9 22:03:21 10° SW 22:06:57 19° W 22:10:35 10° NW visible
28 Sep 3.2 19:54:14 10° SE 19:58:57 36° ENE 20:03:42 10° N visible
28 Sep 4.1 21:34:10 11° SSW 21:38:33 32° W 21:43:16 10° NNW visible
29 Sep 3.8 19:27:12 10° ESE 19:31:05 22° ENE 19:35:00 10° NNE visible
29 Sep 3.1 21:05:52 14° S 21:10:17 57° W 21:15:28 10° NNW visible
30 Sep 2.5 20:37:34 14° SSE 20:42:08 83° ENE 20:47:25 10° NNW visible
30 Sep 5.3 22:19:54 10° WSW 22:22:24 13° W 22:24:55 10° WNW visible
01 Oct 2.8 20:09:17 11° SE 20:14:05 48° ENE 20:19:08 10° N visible
01 Oct 4.6 21:50:07 11° SW 21:53:56 24° W 21:58:09 10° NW visible
